[[{"header":{"parameterUnit":"m.s-1","parameterCategory":1,"la1":30.2991,"la2":30.254,"lo1":-89.0895,"lo2":-89.0444,"dy":0.0017,"dx":0.0017,"nx":28,"ny":28,"refTime":"2025-01-31T03:00:00:Z","depth":0,"parameterNumber":2,"parameterNumberName":"U-component_of_WINDS"},"data":[0,0,0,0,0,0,0,0,0,0,0,0,0,0,0,0,0,0,0,0,0,0,0,0,0,0,0,0,0,0,0,0,0,0,0,0,0,0,0,0,0,0,0,0,0,0,0,0,0,0,0,0,0,0,0,0,0,0,-0.5207,-0.5209,0,-0.5323,-0.5324,-0.5325,-0.5406,-0.5406,-0.5407,-0.5407,-0.5522,-0.5524,-0.5526,0,0,0,0,0,0,0,0,0,0,0,0,0,-0.5053,-0.5055,-0.5207,-0.5209,-0.521,-0.5322,-0.5324,-0.5326,-0.5405,-0.5406,-0.5407,-0.5408,-0.5521,-0.5524,-0.5527,0,0,0,0,0,0,0,0,0,0,0,0,0,-0.5139,-0.5056,-0.5207,-0.5264,-0.527,-0.5322,-0.5324,-0.5326,-0.5405,-0.5406,-0.5407,-0.5408,-0.552,-0.5523,-0.5527,-0.5531,0,0,-0.5538,-0.554,0,0,0,0,0,0,0,0,-0.5134,-0.5144,-0.5254,-0.526,-0.5267,-0.5351,-0.5312,-0.5395,-0.5405,-0.5354,-0.5407,-0.5408,-0.5464,-0.5472,-0.5492,-0.5536,-0.5541,-0.5539,-0.5541,-0.5542,-0.5543,0,0,0,0,0,0,0,-0.5128,-0.514,-0.5253,-0.5255,-0.5263,-0.5282,-0.5295,-0.5328,-0.5402,-0.5358,-0.5364,-0.5377,-0.5467,-0.5488,-0.5495,-0.5543,-0.5539,-0.5542,-0.5544,-0.5546,-0.5596,-0.5595,0,0,0,0,0,0,-0.5113,-0.5134,-0.5249,-0.5256,-0.5201,-0.5284,-0.5299,-0.5323,-0.5402,-0.5415,-0.5376,-0.538,-0.5481,-0.549,-0.5499,-0.5509,-0.5542,-0.5546,-0.5548,-0.5597,-0.5596,-0.5595,0,0,0,0,0,0,-0.511,-0.5123,-0.5245,-0.5197,-0.5214,-0.5286,-0.5312,-0.5325,-0.5345,-0.5415,-0.5429,-0.5384,-0.5482,-0.5494,-0.5523,-0.5514,-0.5548,-0.5551,-0.5598,-0.5597,-0.5596,-0.5528,0,0,0,0,0,0,-0.5105,-0.5121,-0.5124,-0.5197,-0.5216,-0.5267,-0.5311,-0.5326,-0.5352,-0.5358,-0.5426,-0.5438,-0.5484,-0.5517,-0.5526,-0.5519,-0.5554,-0.5599,-0.5598,-0.5596,-0.5531,-0.5524,-0.5518,0,0,0,0,0,-0.5099,-0.51,-0.5124,-0.5137,-0.5222,-0.5266,-0.5278,-0.5331,-0.5351,-0.5354,-0.5399,-0.5436,-0.5513,-0.5519,-0.553,-0.5524,-0.56,-0.5598,-0.5596,-0.5534,-0.5525,-0.5518,0,0,0,0,0,0,-0.5023,-0.511,-0.5138,-0.5162,-0.5207,-0.528,-0.5286,-0.5321,-0.5359,-0.5364,-0.5428,-0.5442,-0.5464,-0.5498,-0.5502,-0.5532,-0.5561,-0.5561,-0.551,-0.5502,-0.5496,-0.5487,-0.5557,0,0,0,0,0,-0.501,-0.504,-0.5114,-0.5128,-0.5149,-0.5213,-0.5234,-0.5272,-0.532,-0.5339,-0.5386,-0.543,-0.5464,-0.5485,-0.5521,-0.5536,-0.5552,-0.5538,-0.5531,-0.5526,-0.5525,-0.5535,-0.5529,-0.5589,-0.5589,-0.5589,0,0,-0.4981,-0.5032,-0.5047,-0.5114,-0.5153,-0.5181,-0.5228,-0.5256,-0.5278,-0.5343,-0.5373,-0.5409,-0.5462,-0.5484,-0.5496,-0.5512,-0.5512,-0.5524,-0.5519,-0.5521,-0.5532,-0.5527,-0.5522,-0.5587,-0.5588,-0.5588,0,0,-0.4944,-0.4986,-0.5002,-0.504,-0.5099,-0.5141,-0.5145,-0.5213,-0.524,-0.5272,-0.5321,-0.5347,-0.5405,-0.544,-0.5466,-0.5442,-0.5477,-0.5452,-0.5418,-0.5427,-0.5422,-0.5418,-0.5409,-0.5405,-0.5451,-0.545,-0.545,0,-0.4901,-0.4947,-0.5006,-0.5031,-0.5059,-0.512,-0.5136,-0.517,-0.5236,-0.5253,-0.527,-0.5344,-0.5384,-0.5415,-0.5409,-0.5428,-0.5434,-0.5444,-0.5418,-0.5415,-0.5412,-0.5404,-0.54,-0.5447,-0.5447,-0.5448,-0.5448,0,-0.489,-0.4921,-0.4927,-0.4991,-0.5019,-0.5039,-0.51,-0.5122,-0.5157,-0.5197,-0.5228,-0.5279,-0.5325,-0.5335,-0.537,-0.5371,-0.5379,-0.5407,-0.5437,-0.5402,-0.5395,-0.5393,-0.5442,-0.5443,-0.5444,-0.5445,0,0,-0.4808,-0.4904,-0.4905,-0.4935,-0.5003,-0.5028,-0.5051,-0.5097,-0.5114,-0.5157,-0.5177,-0.5225,-0.5251,-0.528,-0.5319,-0.5327,-0.5303,-0.5354,-0.5356,-0.5342,-0.5307,-0.5285,-0.528,-0.5327,-0.5327,-0.5327,-0.5302,0,-0.478,-0.4826,-0.488,-0.4906,-0.4935,-0.4993,-0.5013,-0.5057,-0.5095,-0.5124,-0.5166,-0.5199,-0.5231,-0.5249,-0.526,-0.5304,-0.5297,-0.5307,-0.5345,-0.5346,-0.5329,-0.5277,-0.5254,-0.5228,-0.53,-0.5299,-0.5299,0,-0.4754,-0.4796,-0.4825,-0.4891,-0.4905,-0.4922,-0.4969,-0.4996,-0.5046,-0.5074,-0.5106,-0.5148,-0.5174,-0.5201,-0.5237,-0.5242,-0.5261,-0.5285,-0.5286,-0.5291,-0.5319,-0.5279,-0.5221,-0.5216,-0.5296,-0.5296,-0.5296,0,-0.469,-0.4753,-0.4779,-0.4802,-0.488,-0.489,-0.4923,-0.4974,-0.4999,-0.5039,-0.5055,-0.5098,-0.5121,-0.5152,-0.5204,-0.5219,-0.5234,-0.5266,-0.5256,-0.5255,-0.5256,-0.5255,-0.5199,-0.5269,-0.5269,-0.5269,-0.527,0,-0.4653,-0.4668,-0.4751,-0.4766,-0.4785,-0.4846,-0.4863,-0.4901,-0.4946,-0.4969,-0.5022,-0.5042,-0.511,-0.5138,-0.5179,-0.5201,-0.5212,-0.5233,-0.5244,-0.5228,-0.5225,-0.5241,-0.5243,-0.5268,-0.5269,-0.5269,-0.5269,0,-0.4584,-0.464,-0.4672,-0.4743,-0.4761,-0.4771,-0.4832,-0.4849,-0.489,-0.4919,-0.4929,-0.4994,-0.503,-0.5085,-0.5137,-0.5164,-0.5179,-0.5197,-0.5163,-0.5169,-0.5156,-0.5156,-0.5107,-0.5103,-0.5176,-0.5176,-0.5175,0,-0.4556,-0.4569,-0.4642,-0.4662,-0.4693,-0.4724,-0.475,-0.481,-0.4834,-0.4892,-0.4902,-0.4942,-0.4977,-0.5031,-0.5082,-0.5122,-0.514,-0.512,-0.5146,-0.513,-0.5139,-0.5137,-0.5138,-0.5114,-0.5113,-0.5112,-0.5111,0,-0.45,-0.4528,-0.4563,-0.4607,-0.4636,-0.4674,-0.4714,-0.4727,-0.4796,-0.482,-0.4858,-0.4885,-0.4939,-0.4977,-0.5024,-0.5057,-0.5095,-0.5103,-0.5102,-0.5086,-0.5065,-0.5075,-0.5145,-0.5103,-0.5104,-0.5105,-0.5105,-0.5105,-0.4451,-0.4465,-0.4518,-0.4556,-0.4592,-0.4629,-0.4648,-0.4692,-0.4725,-0.4774,-0.4807,-0.4843,-0.4892,-0.4959,-0.499,-0.5017,-0.5034,-0.5034,-0.5033,-0.5032,-0.5026,-0.5061,-0.5026,-0.5027,-0.5027,-0.5027,-0.5027,0,-0.4397,-0.4434,-0.4468,-0.4523,-0.4552,-0.4587,-0.4633,-0.4654,-0.4685,-0.4729,-0.4762,-0.4805,-0.4843,-0.4897,-0.4939,-0.495,-0.4969,-0.4959,-0.4958,-0.4965,-0.5009,-0.5005,-0.4943,-0.4943,-0.4943,-0.4943,-0.4943,-0.4943,-0.4373,-0.4398,-0.4431,-0.4476,-0.4513,-0.4549,-0.4572,-0.4605,-0.464,-0.4686,-0.4718,-0.4753,-0.4801,-0.4846,-0.4882,-0.4897,-0.4909,-0.4894,-0.4914,-0.4954,-0.4962,-0.4969,-0.4965,-0.4896,-0.4896,-0.4867,-0.4867,-0.4867]},{"header":{"parameterUnit":"m.s-1","parameterCategory":1,"la1":30.2991,"la2":30.254,"lo1":-89.0895,"lo2":-89.0444,"dy":0.0017,"dx":0.0017,"nx":28,"ny":28,"refTime":"2025-01-31T03:00:00:Z","depth":0,"parameterNumber":3,"parameterNumberName":"V-component_of_WINDS"},"data":[0,0,0,0,0,0,0,0,0,0,0,0,0,0,0,0,0,0,0,0,0,0,0,0,0,0,0,0,0,0,0,0,0,0,0,0,0,0,0,0,0,0,0,0,0,0,0,0,0,0,0,0,0,0,0,0,0,0,7.351,7.3512,0,7.3664,7.3666,7.3668,7.3658,7.3656,7.3654,7.3651,7.3801,7.3806,7.3812,0,0,0,0,0,0,0,0,0,0,0,0,0,7.3201,7.3207,7.351,7.3512,7.3514,7.3664,7.3666,7.3668,7.3658,7.3656,7.3653,7.365,7.3799,7.3806,7.3813,0,0,0,0,0,0,0,0,0,0,0,0,0,7.3343,7.3209,7.351,7.3528,7.3531,7.3663,7.3666,7.3668,7.3659,7.3656,7.3652,7.3649,7.3796,7.3805,7.3814,7.3936,0,0,7.3842,7.3846,0,0,0,0,0,0,0,0,7.3335,7.3354,7.3523,7.3527,7.353,7.3639,7.3611,7.3758,7.366,7.361,7.3651,7.3648,7.3749,7.3762,7.3797,7.3943,7.395,7.3842,7.3848,7.3852,7.3854,0,0,0,0,0,0,0,7.3325,7.3347,7.3571,7.3526,7.353,7.3525,7.3542,7.3639,7.3696,7.3614,7.3614,7.3633,7.375,7.3789,7.3801,7.3952,7.3842,7.385,7.3856,7.3859,7.4207,7.4211,0,0,0,0,0,0,7.3312,7.3339,7.3566,7.3575,7.3423,7.3534,7.3552,7.3607,7.3695,7.3705,7.3635,7.3632,7.3775,7.379,7.3806,7.3957,7.3852,7.386,7.3865,7.4203,7.4208,7.4212,0,0,0,0,0,0,7.3306,7.3333,7.356,7.3458,7.3486,7.3543,7.3604,7.3612,7.3651,7.3711,7.372,7.3665,7.3773,7.3793,7.3905,7.3962,7.3864,7.3873,7.4199,7.4205,7.421,7.4258,0,0,0,0,0,0,7.3297,7.333,7.3379,7.3459,7.3492,7.3659,7.3608,7.3617,7.3667,7.3664,7.3741,7.3751,7.3772,7.3892,7.3914,7.3973,7.388,7.4194,7.4201,7.4208,7.4252,7.4265,7.4276,0,0,0,0,0,7.3286,7.3385,7.3382,7.3409,7.3555,7.3662,7.368,7.3705,7.3672,7.3721,7.3759,7.3748,7.3952,7.3903,7.3928,7.399,7.419,7.4199,7.4208,7.4247,7.4263,7.4276,0,0,0,0,0,0,7.3307,7.3395,7.3393,7.3521,7.3585,7.366,7.3723,7.3721,7.3793,7.3786,7.3811,7.3828,7.3941,7.3976,7.3921,7.4114,7.4066,7.408,7.4087,7.4103,7.4115,7.4105,7.3887,0,0,0,0,0,7.3327,7.341,7.3481,7.3587,7.3619,7.3666,7.3713,7.3727,7.3792,7.3818,7.3865,7.3927,7.4005,7.4055,7.413,7.4256,7.4273,7.4311,7.4323,7.4333,7.4345,7.4416,7.4434,7.424,7.424,7.424,0,0,7.3369,7.3427,7.3477,7.3593,7.3644,7.3727,7.3688,7.3777,7.3839,7.3831,7.3941,7.3977,7.4047,7.4167,7.4222,7.42,7.4402,7.4344,7.4351,7.4358,7.4426,7.4445,7.4461,7.4246,7.4245,7.4244,0,0,7.3488,7.354,7.3635,7.3688,7.3766,7.3796,7.3819,7.3895,7.392,7.4031,7.4028,7.4099,7.4232,7.4283,7.4327,7.4465,7.4458,7.4488,7.4552,7.4621,7.4636,7.465,7.4701,7.4718,7.45,7.45,7.45,0,7.3529,7.3657,7.3683,7.3775,7.3826,7.3825,7.3921,7.3969,7.4066,7.41,7.4074,7.4243,7.429,7.4423,7.4457,7.4491,7.4517,7.4481,7.4632,7.4646,7.4659,7.4708,7.4727,7.4503,7.4503,7.4503,7.4502,0,7.3704,7.3793,7.386,7.3958,7.4016,7.4109,7.4147,7.4202,7.421,7.4242,7.4355,7.4412,7.4499,7.453,7.4538,7.4664,7.4649,7.4627,7.458,7.4681,7.4727,7.4746,7.4508,7.4507,7.4506,7.4505,0,0,7.3842,7.3955,7.3979,7.4025,7.4111,7.4179,7.427,7.4359,7.4406,7.4472,7.455,7.4663,7.4644,7.4693,7.4706,7.4766,7.4874,7.4737,7.4739,7.4762,7.5018,7.5035,7.5057,7.4869,7.4872,7.4875,7.5013,0,7.3972,7.4139,7.4165,7.4311,7.4393,7.4394,7.4473,7.4534,7.4566,7.4638,7.4672,7.4753,7.4721,7.4751,7.481,7.4848,7.4926,7.4838,7.494,7.4944,7.4926,7.5081,7.5099,7.5226,7.5031,7.5034,7.5036,0,7.4145,7.4221,7.4376,7.4453,7.4488,7.456,7.4644,7.4713,7.4781,7.48,7.4856,7.4862,7.4955,7.4903,7.5031,7.4971,7.5014,7.5039,7.5044,7.5056,7.4998,7.5099,7.5267,7.5287,7.5064,7.5062,7.506,0,7.4233,7.4373,7.4484,7.4522,7.4614,7.4665,7.4705,7.477,7.4821,7.4893,7.4926,7.5006,7.505,7.5111,7.5138,7.5097,7.5265,7.5215,7.5283,7.5283,7.532,7.5318,7.55,7.5344,7.5344,7.5344,7.5343,0,7.4376,7.4471,7.4525,7.4594,7.47,7.4728,7.4832,7.487,7.4928,7.5002,7.5005,7.5074,7.5104,7.5178,7.5198,7.5302,7.5321,7.5339,7.5344,7.534,7.5338,7.537,7.5362,7.5349,7.5348,7.5347,7.5346,0,7.4493,7.4533,7.4655,7.4733,7.4754,7.4829,7.4895,7.496,7.4992,7.5086,7.5109,7.5158,7.5245,7.5277,7.5381,7.5395,7.5516,7.5512,7.5495,7.5497,7.5564,7.5558,7.5775,7.5805,7.5627,7.5629,7.563,0,7.4583,7.4657,7.4744,7.4796,7.4839,7.4921,7.4975,7.5004,7.5059,7.5143,7.5198,7.5285,7.5357,7.5494,7.5537,7.5617,7.5617,7.5687,7.5629,7.5623,7.562,7.5617,7.5624,7.5698,7.57,7.5702,7.5703,0,7.4739,7.4756,7.4835,7.4921,7.4986,7.5054,7.512,7.5162,7.5201,7.5262,7.5353,7.5408,7.5517,7.5603,7.5685,7.5723,7.572,7.5721,7.5741,7.574,7.5727,7.5737,7.5527,7.5716,7.5715,7.5714,7.5713,7.5713,7.4847,7.4913,7.4986,7.5073,7.5127,7.5189,7.5256,7.5297,7.5374,7.5467,7.5478,7.5575,7.564,7.5751,7.5793,7.5867,7.5848,7.5877,7.5885,7.5892,7.5899,7.5714,7.5882,7.5882,7.5881,7.5881,7.5881,0,7.5005,7.5052,7.5132,7.5227,7.5296,7.5289,7.5362,7.5419,7.5506,7.5569,7.564,7.5744,7.5827,7.5878,7.5961,7.6011,7.6012,7.6032,7.603,7.6039,7.591,7.5885,7.6031,7.6031,7.6031,7.6031,7.6031,7.6031,7.5095,7.5209,7.5233,7.5372,7.5417,7.5516,7.5558,7.5615,7.5665,7.5783,7.5854,7.5886,7.5944,7.6032,7.6108,7.612,7.6151,7.6174,7.6185,7.6063,7.6048,7.6033,7.601,7.618,7.618,7.6308,7.6309,7.631]}]]